Regional Weather Roundup
Issued by NWS Wilmington, NC

Home | Current Version | Previous Version | Text Only | Print | Product List | Glossary On
Versions: 1 2 3 4 5 6 7 8 9 10 11 12 13 14 15 16 17 18 19 20 21 22 23 24 25 26 27 28 29 30 31 32 33 34 35 36 37 38 39 40 41 42 43 44 45 46 47 48 49 50
000
ASUS42 KILM 082012
RWRILM
RWRILM
REGIONAL HOURLY WEATHER ROUNDUP
NATIONAL WEATHER SERVICE WILMINGTON NC
300 PM EST THU DEC 08 2016

NOTE: "FAIR" INDICATES FEW OR NO CLOUDS BELOW 12,000 FEET WITH NO
SIGNIFICANT WEATHER AND/OR OBSTRUCTIONS TO VISIBILITY.

...............WFO WILMINGTON COUNTY WARNING AREA...............

......COASTAL NC AND SC COUNTIES......

CITY           SKY/WX    TMP DP  RH WIND       PRES   REMARKS
WILMINGTON     CLOUDY    56  46  69 NW15      30.04S
N MYRTLE BEACH MOSUNNY   59  49  69 N9        30.04F
MYRTLE BEACH   PTSUNNY   61  48  63 MISG      30.06F

......INLAND NC AND SC COUNTIES.......

CITY           SKY/WX    TMP DP  RH WIND       PRES   REMARKS
LUMBERTON      CLOUDY    55  41  59 N8        30.08S
ELIZABETHTOWN  CLOUDY    56  40  56 N5        30.07S
WHITEVILLE     CLOUDY    56  48  76 NW3       30.06S
FLORENCE       PTSUNNY   59  47  64 NW9       30.09R
DARLINGTON     PTSUNNY   56  41  57 N12       30.10S
KINGSTREE      PTSUNNY   59  46  63 NW13      30.08R
HARTSVILLE     PTSUNNY   54  43  66 NW3       30.09S
BENNETTSVILLE  FAIR      55  41  58 NW7       30.10R
CONWAY         PTSUNNY   57  48  72 N7        30.07S HAZE
GEORGETOWN     NOT AVBL
MARION         CLOUDY    55  46  71 NW6       30.08S

....................REST OF NORTH CAROLINA......................

.........EASTERN NC.........

CITY           SKY/WX    TMP DP  RH WIND       PRES   REMARKS
CAPE HATTERAS  NOT AVBL
JACKSONVILLE   CLOUDY    56  37  49 NW9       30.06S
MOREHEAD CITY  CLOUDY    57  50  77 NW16      30.04  HAZE
KENANSVILLE    CLOUDY    54  32  43 NW8       30.07S
NEW BERN       MOSUNNY   55  34  45 NW12G20   30.05R
ELIZABETH CITY CLOUDY    51  39  63 NW14      30.01R

.........CENTRAL NC.........

CITY           SKY/WX    TMP DP  RH WIND       PRES   REMARKS
RALEIGH DURHAM PTSUNNY   50  18  28 VRB7G16   30.09R
ROCKY MOUNT    CLOUDY    50  25  37 NW13      30.07R
ROANOKE RAPIDS NOT AVBL
FAYETTEVILLE   CLOUDY    54  34  46 N12       30.08R
HOFFMAN        CLOUDY    52  33  49 NW12      30.09R

.........WESTERN NC.........

CITY           SKY/WX    TMP DP  RH WIND       PRES   REMARKS
CHARLOTTE      CLOUDY    50  21  32 NW12G20   30.14R
GREENSBORO     PTSUNNY   46  20  35 NW18      30.11R
HICKORY        NOT AVBL
BOONE          NOT AVBL
ASHEVILLE      NOT AVBL

.....................REST OF SOUTH CAROLINA.....................

.........EASTERN SC.........

CITY           SKY/WX    TMP DP  RH WIND       PRES   REMARKS
CHARLESTON     NOT AVBL
BEAUFORT MCAS  MOSUNNY   64  44  48 NW13      30.10R
HILTON HEAD    SUNNY     66  45  45 W9        30.09

.........CENTRAL SC.........

CITY           SKY/WX    TMP DP  RH WIND       PRES   REMARKS
COLUMBIA       NOT AVBL
ORANGEBURG     MOSUNNY   58  45  62 N8        30.12R
SUMTER SHAW    PTSUNNY   58  45  62 N8        30.08S

.........WESTERN SC.........

CITY           SKY/WX    TMP DP  RH WIND       PRES   REMARKS
GREENVILLE     NOT AVBL
ROCK HILL      PTSUNNY   51  22  31 N12       30.14R
ANDERSON       NOT AVBL
CLEMSON        NOT AVBL
GREENWOOD      CLOUDY    53  34  48 NW10      30.17R


...................COASTAL AND OFFSHORE REPORTS..................

................LOCAL PIERS AND NC RESERVE................


STATION/POSITION TIME  SKY/WX   TEMP    WIND        PRES    VSBY
                                AIR SEA DIR/SP/G
                 (UTC)          (F)     (DEG/KT/KT) (MB)    (MI)
JOHNY MRCER PIER 1948            59 62  330/ 13/ 16 1015.8R
NC RESRV MASNBRO NOT AVBL
OCEAN CREST PIER NOT AVBL
SPRINGMAID  PIER NOT AVBL


................COASTAL AND OFFSHORE BUOYS................


STATION/POSITION TIME  SKY/WX   TEMP    WIND        PRES    VSBY
                                AIR SEA DIR/SP/G
                 (UTC)          (F)     (DEG/KT/KT) (MB)    (MI)
DIMNDSHOAL 41025 1950            60 77  290/ 17/ 23 1015.0R
WVE H/P(F/S)=  5/ 9 SWL H/P/D(F/S/D)=  3/ 70/ 9

CAPE LOOKOUT     2000            56     300/ 14/ 15 1016.5R
ONSLOW BAY 41036 NOT AVBL
ONSLOW BAY 41064 1908            57 70  310/ 12/ 16 1016.7F
ONSLOW BAY 41159 NOT AVBL
5SE WRITBC 41038 1908            58 62  270/ 10/ 14 1016.7F
MASNBO INL 41110 1959               62                N/A
WVE H/P(F/S)=  2/10

WILM HARBR 41108 1956               62                N/A
WVE H/P(F/S)=  2/ 4

27SE WRITB 41037 1908            59 68  290/ 14/ 21 1016.5F
FRYING PAN 41013 1950            60 74  310/ 16/ 21 1017.0R
WVE H/P(F/S)=  3/ 4 SWL H/P/D(F/S/D)=  2/ 70/ 9

SUNST NRSH 41024 1908            58 59  320/ 10/ 14 1017.2F
CAPRS NRSH 41029 1908            62 61  310/  6/  8 1017.6F
EDISTO     41004 1950            61 74  320/ 12/ 14 1017.5R
WVE H/P(F/S)=  3/ 4 SWL H/P/D(F/S/D)=  2/ 90/ 8



..........OFFSHORE BUOYS BEYOND 100 NM OFFSHORE...........
.....IN A TRIANGLE---HAT TO BERMUDA TO BAHAMAS TO HAT.....


STATION/POSITION TIME  SKY/WX   TEMP    WIND        PRES    VSBY
                                AIR SEA DIR/SP/G
                 (UTC)          (F)     (DEG/KT/KT) (MB)    (MI)
150E HAT   41001 NOT AVBL
W BERMUDA  41048 1950            71 73  250/ 10/ 12 1016.1F
WVE H/P(F/S)=  6/ 7 SWL H/P/D(F/S/D)=  5/300/ 7

ATLANTIC S 41049 1950            76 76  260/ 12/ 14 1017.6S
WVE H/P(F/S)=  6/10 SWL H/P/D(F/S/D)=  5/350/10

E BAHAMAS  41046 2000            78 79  250/  2/  4 1018.0
NE BAHAMAS 41047 2000            77 78   60/  4/  6 1017.4
120E CANVRL41010 NOT AVBL

END



USA.gov is the U.S. government's official web portal to all federal, state and local government web resources and services.